Weather observations for the past three days for
Harrisburg, Capital City Airport
Imperial (Metric)
Date Time (edt) Wind (mph) Vis. (mi.) Weather Sky Cond. Temperature (ºF) Relative Humidity Wind Chill (°F) Heat Index (°F) Pressure Precipitation (in)
Air Dwpt 6 hour altimeter (in) sea level (mb) 1 hr 3 hr 6 hr
Max. Min.
22 16:56 S 3 10.00 Mostly Cloudy FEW070 BKN100 96.1 68 40% 101 29.89 1012.0
22 15:56 Vrbl 5 10.00 Fair CLR 98.1 66.9 36% 103 29.92 1012.8
22 14:56 S 5 10.00 Fair CLR 97 66.9 37% 101 29.94 1013.6
22 13:56 W 8 10.00 Partly Cloudy FEW065 SCT085 97 66.9 98.1 82 37% 101 29.97 1014.6
22 12:56 SW 6 10.00 Fair CLR 98.1 66 35% 102 29.99 1015.3
22 11:56 SW 5 10.00 Fair CLR 95 66.9 40% 99 30.01 1015.9
22 10:56 W 6 10.00 Fair CLR 91.9 69.1 47% 97 30.03 1016.5
22 09:56 Calm 10.00 Fair CLR 88 69.1 54% 92 30.05 1017.3
22 08:56 Calm 10.00 Fair CLR 84.9 68 57% 88 30.06 1017.8
22 07:56 Calm 10.00 Fair CLR 82 69.1 82.9 73.9 65% 85 30.06 1017.7
22 06:56 Vrbl 5 10.00 Fair CLR 77 66.9 71% 79 30.07 1017.9
22 05:56 Calm 10.00 Fair CLR 75 66.9 76% 76 30.06 1017.7
22 04:56 Calm 10.00 Fair CLR 75.9 66.9 74% 77 30.06 1017.6
22 03:56 Calm 10.00 Fair CLR 78.1 66.9 69% 80 30.06 1017.7
22 02:56 Calm 10.00 Fair CLR 79 66.9 67% 81 30.07 1017.9
22 01:56 S 6 10.00 A Few Clouds FEW065 82 66.9 91.9 81 60% 85 30.08 1018.2
22 00:56 N 5 10.00 Fair CLR 86 66 51% 88 30.09 1018.5
21 23:56 E 3 10.00 Fair CLR 84.9 64.9 51% 87 30.08 1018.4
21 22:56 Vrbl 5 10.00 Fair CLR 88 64 45% 89 30.08 1018.5
21 21:56 S 7 10.00 Fair CLR 90 64 42% 91 30.08 1018.2
21 19:56 S 6 10.00 Fair CLR 91.9 66.9 97 91.9 44% 95 30.06 1017.6
21 18:56 S 7 10.00 Fair CLR 93.9 66.9 41% 98 30.06 1017.5
21 17:56 S 7 10.00 Fair CLR 95 66 39% 98 30.07 1017.9
21 16:56 SW 9 10.00 Fair CLR 96.1 66 37% 100 30.08 1018.2
21 15:56 S 9 10.00 Fair CLR 96.1 64.9 36% 99 30.09 1018.7
21 14:56 W 8 10.00 Fair CLR 96.1 64.9 36% 99 30.12 1019.5
21 13:56 N 7 10.00 Fair CLR 95 64 95 79 36% 97 30.15 1020.6
21 12:56 Calm 10.00 Fair CLR 91.9 64 40% 94 30.17 1021.4
21 11:56 Calm 10.00 Fair CLR 91.9 66.9 44% 95 30.19 1022.2
21 10:56 Calm 10.00 Fair CLR 90 68 48% 94 30.2 1022.4
21 09:56 Calm 10.00 Fair CLR 84.9 66 53% 87 30.21 1022.8
21 08:56 W 5 10.00 Fair CLR 82 64.9 56% 84 30.22 1023.1
21 07:56 Calm 10.00 Fair CLR 80.1 64.9 80.1 71.1 60% 82 30.22 1023.0
21 06:56 Calm 10.00 Fair CLR 75 64.9 71% 77 30.23 1023.5
21 05:56 SW 3 10.00 Fair CLR 72 64 76% 30.22 1023.3
21 04:56 Calm 10.00 Fair CLR 73.9 64 71% 30.22 1023.1
21 03:56 SW 3 10.00 Fair CLR 75.9 64 67% 78 30.23 1023.3
21 02:56 SW 3 10.00 Fair CLR 73.9 64.9 74% 30.24 1023.6
21 01:56 Calm 10.00 Fair CLR 75.9 64.9 89.1 75.9 69% 78 30.23 1023.4
21 00:56 Calm 10.00 Fair CLR 79 64.9 62% 81 30.24 1023.8
20 23:56 Vrbl 3 10.00 Fair CLR 80.1 64.9 60% 82 30.24 1023.8
20 22:56 Vrbl 5 10.00 Fair CLR 82.9 64 53% 84 30.24 1023.7
20 21:56 S 8 10.00 Fair CLR 86 63 46% 87 30.23 1023.3
20 20:56 SW 3 10.00 Fair CLR 84.9 64.9 51% 87 30.22 1023.1
20 19:56 S 3 10.00 Fair CLR 89.1 64.9 93 89.1 45% 91 30.22 1023.1
20 18:56 Vrbl 7 10.00 Fair CLR 91 63 39% 92 30.22 1023.1
20 17:56 SW 3 10.00 Fair CLR 91.9 64 40% 94 30.23 1023.5
20 16:56 SW 9 10.00 Fair CLR 91.9 64 40% 94 30.25 1024.1
20 15:56 W 6 10.00 Fair CLR 91 64 41% 93 30.27 1024.7
20 14:56 Vrbl 7 10.00 Fair CLR 93 64 38% 95 30.28 1025.3
20 13:56 Vrbl 7 10.00 Fair CLR 91 64 91.9 75 41% 93 30.3 1025.8
20 12:56 Vrbl 6 10.00 Fair CLR 90 63 41% 91 30.32 1026.3
20 11:56 Calm 10.00 Fair CLR 88 66 48% 90 30.33 1026.7
20 10:56 E 5 10.00 Fair CLR 86 66 51% 88 30.34 1027.2
20 09:56 N 6 10.00 Fair CLR 82 64.9 56% 84 30.35 1027.5
20 08:56 Calm 10.00 Fair CLR 78.1 64 62% 80 30.34 1027.4
20 07:56 W 5 10.00 Fair CLR 75 62.1 75.9 69.1 64% 77 30.35 1027.5
20 06:56 Calm 10.00 Fair CLR 73 62.1 69% 30.34 1027.1
20 05:56 SW 3 10.00 Fair CLR 69.1 60.1 73% 30.32 1026.6
20 04:56 SW 3 10.00 Fair CLR 70 61 73% 30.31 1026.1
20 03:56 Calm 10.00 Fair CLR 72 60.1 66% 30.31 1026.4
20 02:56 Calm 10.00 Fair CLR 72 60.1 66% 30.32 1026.5
20 01:56 SW 3 10.00 Fair CLR 73 60.1 87.1 73 64% 30.32 1026.5
20 00:56 SE 5 10.00 Fair CLR 77 59 54% 79 30.32 1026.7
19 23:56 E 3 10.00 Fair CLR 80.1 59 49% 81 30.33 1026.7
19 22:56 S 5 10.00 Fair CLR 80.1 59 49% 81 30.33 1026.8
19 21:56 Vrbl 5 10.00 Fair CLR 82 57 43% 82 30.31 1026.3
19 20:56 S 9 10.00 Fair CLR 84 55.9 38% 83 30.29 1025.5
19 19:56 S 10 10.00 Fair CLR 87.1 61 93.9 87.1 42% 87 30.29 1025.4
19 18:56 S 9 10.00 Fair CLR 89.1 63 42% 90 30.28 1025.3
19 17:56 S 9 10.00 Partly Cloudy SCT060 91 64 41% 93 30.27 1024.9
Date Time (edt) Wind (mph) Vis. (mi.) Weather Sky Cond. Air Dwpt Max. Min. Relative Humidity Wind Chill (°F) Heat Index (°F) altimeter (in) sea level (mb) 1 hr 3 hr 6 hr
6 hour
Temperature (ºF) Pressure Precipitation (in)